PO-101 (43678 NORAD) Tracking and Keplerian Element Data

This shows tracking and keplerian element data for the satellite.

Feedback or suggestion? Click here.




ElementValue
Catalog43678
NamePO-101
Epoch Orbit3794
Epoch Day191.81101249
Epoch Year2019
RAAN305.9641
Inclination97.8532
Eccentricity0.0009
Argument of Perigee224.9327
Mean Anonmoly135.1185
Mean Motion14.91557982
Decay Rate7E-07
L11 43678U 18084H 19191.81101249 .00000070 00000-0 12632-4 0 9991
L22 43678 97.8532 305.9641 0009000 224.9327 135.1185 14.91557982 37948

Live tracking and technical data element details for PO-101 (NORAD 43678). PO-101 can be tracked NOW for your location showing map with azimuth and elevation plus other details from your city location.

Track the satellite on the map from your city or location and see movement details for azimuth, elevation, latitude, longitude, range, height, and movement on the map or in text.







IsCatalogInMostPopularTable: catalog: 43678, numindb: 132
Update: records affected: 1



GetName: 43678 PO-101

Hit Count: updated at: Mon, 15 Jul 2019 23:07:32 GMT